Погода Каменная Степь

Погода Каменная Степь : погода сейчас, прогноз погоды и архив. Всё, что Вы хотите узнать о погоде Каменная Степь!

Поиск расширенной информации на нашем сайте:

Другие новости

Новости СМИ2

Главная страница сайта

Новости сайта

03.07.2017

Напоминаем, что на нашем специализированном сайте Метеоцентр.Азия вы можете получить высокодетализированные автоматические прогнозы погоды по пунктам России, СНГ и мира в авиационном формате (включающие направление и скорость ветра, видимость, явления погоды, количество и форму облачности, нижнюю и верхнюю границу облачности).

Рекомендуем: Jpg столы пластиковые.

Погода Каменная Степь - сегодня

Время (UTC), дата Ветер
(°,м/с) 
Видим.   Явления Облачность Т
(°С)
Тd
(°С)
f(%) Тe
(°С)
Pmin
(гПа)
dP
(гПа)
Po
(мм)
O2
(г/м3)
Тmin Tmax R s Состояние
почвы
03 18.07.17 290 (З) 10 км    1/1 600 м 
[Sc]
+14.2 +12.7 91 +20  1018.2  0.4  746  283  +12.9         
06 18.07.17 320 (СЗ) 12000 м    1/1 600 м 
[Cu hum]
+19.9 +12.2 61 +25  1018.4  0.7  747  278           
09 18.07.17 340 (С) 13000 м    4/4 600 м 
[Cu hum]
+22.2 +11.7 51 +26  1018  -0.3  747  276           
12 18.07.17 340 (С) 13000 м    4/3 600 м средняя, верхняя 
[Cu hum|Ac lent|Ci fib]
+23.7 +11.2 45 +27  1017.2  -0.6  746  275           
15 18.07.17 360 (С) 13000 м    4/4 600 м 
[Cu hum]
+24 +11 44 +27  1016.7  -0.4  746  274    +24.8       
18 18.07.17 020 (С) 12000 м    4/0 верхняя 
[Ci fib]
+20.1 +10.2 53 +22  1017.5  0.4  746  278           
21 18.07.17 050 (СВ) 10 км    3/0 верхняя 
[Ci fib]
+16.3 +10 66 +19  1017.8  0.1  746  282           
00 19.07.17 050 (СВ) 10 км    3/0 верхняя 
[Ci fib]
+14.1 +10.9 81 +17  1018.3  0.2  746  284           
03 19.07.17 тихо ()   10 км    ясно верхняя 
[Ci fib]
+15.1 +12 82 +19  1018  -0.1  746  283  +13         
06 19.07.17 340 (С) 12000 м    ясно 
+22.4 +12.4 53 +27  1018  0.4  747  276           
09 19.07.17 020 (С) 13000 м    4/4 600 м 
[Cu Sc]
+24.5 +11.4 44 +28  1017.1  -0.6  746  274           
12 19.07.17 360 (С) 13000 м    6/6 600 м 
[Cu Sc]
+26.3 +11.9 41 +30  1015.8  -1.2  745  272           
15 19.07.17 010 (С) 13000 м    4/3 600 м средняя 
[Cu Sc|Ac As]
+26 +9.1 34 +26  1014.6  -1  744  272    +27       
18 19.07.17 020 (С) 11000 м    3/1 600 м верхняя 
[Sc|Ci fib]
+20.1 +12.9 63 +26  1015.8  0.6  745  277           
21 19.07.17 050 (СВ) 10 км    3/1 600 м верхняя 
[Sc|Ci fib]
+17.1 +12.6 75 +24  1015.5  -0.5  745  280           
00 20.07.17 050 (СВ) 10 км    3/1 600 м верхняя 
[Sc|Ci fib]
+15.4 +12.1 81 +21  1015.2  -0.5  744  282           
03 20.07.17 070 (В) 10 км    6/6 600 м 
[Sc]
+15.7 +13.5 87 +22  1015.2  744  281  +14.1         
06 20.07.17 360 (С) 12000 м    3/1 600 м средняя, верхняя 
[Cu hum|As trans|Ci fib]
+21 +16.2 74 +32  1014.6  -0.1  744  275           
09 20.07.17 050 (СВ) 12000 м    3/3 600 м 
[Cu hum]
+25.3 +14 50 +32  1014  -0.3  744  272           
12 20.07.17 340 (С) 13000 м    6/6 600 м 
[Cu hum]
+26.7 +12.2 41 +31  1012.8  -1.2  743  270           
15 20.07.17 360 (С) 13000 м    6/6 600 м 
[Cu hum]
+26.1 +13.5 46 +33  1012.7  -0.1  743  271    +27.5       
18 20.07.17 020 (С) 13000 м    4/0 средняя, верхняя 
[Ac As|Cs]
+20.9 +13.4 62 +27  1013.5  0.5  743  276           
21 20.07.17 050 (СВ) 10 км    4/0 средняя, верхняя 
[Ac As|Cs]
+18.1 +12.5 70 +24  1013.8  743  278           
00 21.07.17 тихо ()   10 км    8/5 600 м средняя, верхняя 
[Sc|As trans|Cs]
+15.6 +12.3 81 +20  1014.2  0.2  743  281           
03 21.07.17 050 (СВ) 12000 м    4/0 средняя, верхняя 
[Ac As|Cs]
+16.5 +12.1 75 +21  1014.8  0.7  744  280  +13.9         
Время (UTC), дата Ветер
(°,м/с) 
Видим.   Явления Облачность Т
(°С)
Тd
(°С)
f(%) Тe
(°С)
Pmin
(гПа)
dP
(гПа)
Po
(мм)
O2
(г/м3)
Тmin Tmax R s Состояние
почвы

Для получения пояснительной информации подведите курсор к названию столбца.

ПОГОДА Каменная Степь - архив

Всё, что Вы хотите узнать о погоде Каменная Степь - удобно и подробно!

Выберите нужную дату (начиная с 1 января 2015* года) и нажмите кнопку "Найти".
Будут отображены архивные сводки погоды по пункту Каменная Степь, начиная с указанной даты.


Отображать данные в формате CSV (для использования в таблицах Excel)


Внимание! Наш архив погоды предназначен исключительно для личного некоммерческого использования в познавательных целях. Если Вам необходимы официальные справки о состоянии погоды (для производственных, юридических, коммерческих и т.п. целей), обращайтесь в органы Росгидромета.

*Примечание: данная дата относится к архиву по метеостанциям СССР (Россия, СНГ, Балтия).
Архив по метеостанциям Зарубежной Европы и Азии (кроме Китая) хранится 10 дней, по другим регионам земного шара (Китай, Африка, Америка, Австралия, Океания) - 1 день.

Каменная Степь - район местоположения метеостанции


Название, широта, долгота, высота метеостанции:
Каменная Степь 51.1°ш. 40.7°д. 194 м над ур. моря [Российская Федерация]

Дополнительная информация

В oтличие oт бoльшинства пoгoдных сайтoв мы публикуем пoдрoбную метеoинфoрмацию в детальнoм прoфессиoнальнoм фoрмате.

Характеристики температуры и влажнoсти вoздуха измеряются на высoте 2 м в тени вдали oт зданий и деревьев.
Скoрoсть ветра измеряется на высoте 10 м (на урoвне рoста челoвека скoрoсть ветра ниже в 1.5-2 раза). Если метеoстанция нахoдится в гoрoде или в лесу, тo скoрoсть ветра занижена на 2-4 м/с пo сравнению с oткрытым местoм. Скoрoсть ветра над акватoриями крупных рек и oзёр, а также на вершинах хoлмoв на 2-5 м/с выше, чем в oбычных услoвиях.
Атмoсфернoе давление в разных тoчках местнoсти мoжет значительнo oтличаться oт давления на метеoстанции, в зависимoсти oт услoвий рельефа (при пoдъёме на 10 м давление пoнижается примернo на 1 мм рт.ст.).